Klar, wolkenlos
Klar, wolkenlos
Klar, wolkenlos
Klar, wolkenlos
Klar, wolkenlos
Klar, wolkenlos
Klar, wolkenlos
(°C)
(°C)
-3°
-4°
-5°
-6°
-7°
-7°
-8°
ONO
ONO
NO
NO
NO
NO
NO
(km/h)
17-25
18-27
16-28
18-27
19-25
20-28
20-26
(mm)
0
0
0
0
0
0
0
(%)
0
0
0
0
0
0
0

Sonnenhöhe

/ 18.1°
sun-icon
UV 3
07:37
18:04
Abnehmender Mond (199°)
19:40
08:48

METAR für Ioannina (LGIO)

Zeit Bedingungen Temperatur/
Taupunkt
Wind Sichtweite Wetter Wolken Druck Änderung Roh
4°C / °C 40º variable 020º to 080º 8kt - 1026 - LGIO 071350Z AUTO 04008KT 020V080 //// // ////// 04/M11 Q1026 RE//
4°C / °C 60º variable 360º to 080º 8kt - 1026 - LGIO 071320Z AUTO 06008KT 360V080 //// // ////// 04/M11 Q1026 RE//
4°C / °C 100º 8kt - 1026 - LGIO 071250Z AUTO 10008KT //// // ////// 04/M11 Q1026 RE//
VFR 4°C / °C 80º variable 010º to 100º 8kt >10km - Few Clouds 4000ft 1026 - LGIO 071220Z 08008KT 010V100 9999 FEW040 04/M11 Q1026
VFR 4°C / °C 50º variable 020º to 100º 9kt >10km - Few Clouds 8000ft 1026 - LGIO 071150Z 05009KT 020V100 9999 FEW080 04/M11 Q1026
VFR 4°C / °C 60º variable 030º to 120º 9kt >10km - Few Clouds 8000ft 1026 - LGIO 071120Z 06009KT 030V120 9999 FEW080 04/M11 Q1026
VFR 4°C / °C 30º variable 010º to 100º 8kt >10km - Few Clouds 8000ft 1026 - LGIO 071050Z 03008KT 010V100 9999 FEW080 04/M11 Q1026
VFR 4°C / °C 70º variable 020º to 100º 9kt >10km - Few Clouds 3000ft 1027 - LGIO 071020Z 07009KT 020V100 9999 FEW030 04/M11 Q1027
VFR 3°C / °C 90º variable 020º to 110º 8kt >10km - Few Clouds 3000ft 1027 - LGIO 070950Z 09008KT 020V110 9999 FEW030 03/M11 Q1027
VFR 3°C / °C 30º variable 010º to 120º 9kt >10km - Few Clouds 3000ft 1027 - LGIO 070920Z 03009KT 010V120 9999 FEW030 03/M11 Q1027
VFR 2°C / °C 310º 2kt >10km - Few Clouds 3000ft
Scattered Clouds 8000ft
1027 - LGIO 070850Z 31002KT 9999 FEW030 SCT080 02/M11 Q1027
VFR 1°C / °C 330º 2kt >10km - Broken Clouds 8000ft 1027 - LGIO 070820Z 33002KT 9999 BKN080 01/M12 Q1027
VFR 0°C / °C 360º variable 310º to 050º 4kt >10km - Broken Clouds 8000ft 1027 - LGIO 070750Z 36004KT 310V050 9999 BKN080 00/M11 Q1027
VFR -1°C / °C 280º 3kt >10km - Broken Clouds 8000ft 1027 - LGIO 070720Z 28003KT 9999 BKN080 M01/M10 Q1027
VFR -1°C / °C 250º 2kt >10km - Broken Clouds 8000ft 1027 - LGIO 070650Z 25002KT 9999 BKN080 M01/M10 Q1027
VFR -2°C / °C 260º 3kt >10km - Broken Clouds 8000ft 1027 - LGIO 070620Z 26003KT 9999 BKN080 M02/M10 Q1027
VFR -2°C / °C 200º 3kt >10km - Broken Clouds 8000ft 1026 - LGIO 070550Z 20003KT 9999 BKN080 M02/M10 Q1026
-3°C / °C variable 2kt - 1026 - LGIO 070520Z AUTO VRB02KT //// // ////// M03/M10 Q1026 RE//
-3°C / °C variable 2kt - 1026 - LGIO 070450Z AUTO VRB02KT //// // ////// M03/M11 Q1026 RE//
-4°C / °C variable 2kt - 1025 - LGIO 070420Z AUTO VRB02KT //// // ////// M04/M10 Q1025 RE//
-3°C / °C variable 1kt - 1025 - LGIO 070350Z AUTO VRB01KT //// // ////// M03/M10 Q1025 RE//
-2°C / °C variable 2kt - 1025 - LGIO 070320Z AUTO VRB02KT //// // ////// M02/M12 Q1025 RE//
-2°C / °C variable 3kt - 1025 - LGIO 070250Z AUTO VRB03KT //// // ////// M02/M12 Q1025 RE//
-2°C / °C variable 3kt - 1025 - LGIO 070220Z AUTO VRB03KT //// // ////// M02/M12 Q1025 RE//

4°C / °C

[Mehr]
Wind 40º variable 020º to 080º 8kt
Sichtweite
Wetter -
Wolken
Druck 1026
Änderung -
Roh LGIO 071350Z AUTO 04008KT 020V080 //// // ////// 04/M11 Q1026 RE//

4°C / °C

[Mehr]
Wind 60º variable 360º to 080º 8kt
Sichtweite
Wetter -
Wolken
Druck 1026
Änderung -
Roh LGIO 071320Z AUTO 06008KT 360V080 //// // ////// 04/M11 Q1026 RE//

4°C / °C

[Mehr]
Wind 100º 8kt
Sichtweite
Wetter -
Wolken
Druck 1026
Änderung -
Roh LGIO 071250Z AUTO 10008KT //// // ////// 04/M11 Q1026 RE//

VFR

4°C / °C

[Mehr]
Wind 80º variable 010º to 100º 8kt
Sichtweite >10km
Wetter -
Wolken Few Clouds 4000ft
Druck 1026
Änderung -
Roh LGIO 071220Z 08008KT 010V100 9999 FEW040 04/M11 Q1026

VFR

4°C / °C

[Mehr]
Wind 50º variable 020º to 100º 9kt
Sichtweite >10km
Wetter -
Wolken Few Clouds 8000ft
Druck 1026
Änderung -
Roh LGIO 071150Z 05009KT 020V100 9999 FEW080 04/M11 Q1026

VFR

4°C / °C

[Mehr]
Wind 60º variable 030º to 120º 9kt
Sichtweite >10km
Wetter -
Wolken Few Clouds 8000ft
Druck 1026
Änderung -
Roh LGIO 071120Z 06009KT 030V120 9999 FEW080 04/M11 Q1026

VFR

4°C / °C

[Mehr]
Wind 30º variable 010º to 100º 8kt
Sichtweite >10km
Wetter -
Wolken Few Clouds 8000ft
Druck 1026
Änderung -
Roh LGIO 071050Z 03008KT 010V100 9999 FEW080 04/M11 Q1026

VFR

4°C / °C

[Mehr]
Wind 70º variable 020º to 100º 9kt
Sichtweite >10km
Wetter -
Wolken Few Clouds 3000ft
Druck 1027
Änderung -
Roh LGIO 071020Z 07009KT 020V100 9999 FEW030 04/M11 Q1027

VFR

3°C / °C

[Mehr]
Wind 90º variable 020º to 110º 8kt
Sichtweite >10km
Wetter -
Wolken Few Clouds 3000ft
Druck 1027
Änderung -
Roh LGIO 070950Z 09008KT 020V110 9999 FEW030 03/M11 Q1027

VFR

3°C / °C

[Mehr]
Wind 30º variable 010º to 120º 9kt
Sichtweite >10km
Wetter -
Wolken Few Clouds 3000ft
Druck 1027
Änderung -
Roh LGIO 070920Z 03009KT 010V120 9999 FEW030 03/M11 Q1027

VFR

2°C / °C

[Mehr]
Wind 310º 2kt
Sichtweite >10km
Wetter -
Wolken Few Clouds 3000ft
Scattered Clouds 8000ft
Druck 1027
Änderung -
Roh LGIO 070850Z 31002KT 9999 FEW030 SCT080 02/M11 Q1027

VFR

1°C / °C

[Mehr]
Wind 330º 2kt
Sichtweite >10km
Wetter -
Wolken Broken Clouds 8000ft
Druck 1027
Änderung -
Roh LGIO 070820Z 33002KT 9999 BKN080 01/M12 Q1027

VFR

0°C / °C

[Mehr]
Wind 360º variable 310º to 050º 4kt
Sichtweite >10km
Wetter -
Wolken Broken Clouds 8000ft
Druck 1027
Änderung -
Roh LGIO 070750Z 36004KT 310V050 9999 BKN080 00/M11 Q1027

VFR

-1°C / °C

[Mehr]
Wind 280º 3kt
Sichtweite >10km
Wetter -
Wolken Broken Clouds 8000ft
Druck 1027
Änderung -
Roh LGIO 070720Z 28003KT 9999 BKN080 M01/M10 Q1027

VFR

-1°C / °C

[Mehr]
Wind 250º 2kt
Sichtweite >10km
Wetter -
Wolken Broken Clouds 8000ft
Druck 1027
Änderung -
Roh LGIO 070650Z 25002KT 9999 BKN080 M01/M10 Q1027

VFR

-2°C / °C

[Mehr]
Wind 260º 3kt
Sichtweite >10km
Wetter -
Wolken Broken Clouds 8000ft
Druck 1027
Änderung -
Roh LGIO 070620Z 26003KT 9999 BKN080 M02/M10 Q1027

VFR

-2°C / °C

[Mehr]
Wind 200º 3kt
Sichtweite >10km
Wetter -
Wolken Broken Clouds 8000ft
Druck 1026
Änderung -
Roh LGIO 070550Z 20003KT 9999 BKN080 M02/M10 Q1026

-3°C / °C

[Mehr]
Wind variable 2kt
Sichtweite
Wetter -
Wolken
Druck 1026
Änderung -
Roh LGIO 070520Z AUTO VRB02KT //// // ////// M03/M10 Q1026 RE//

-3°C / °C

[Mehr]
Wind variable 2kt
Sichtweite
Wetter -
Wolken
Druck 1026
Änderung -
Roh LGIO 070450Z AUTO VRB02KT //// // ////// M03/M11 Q1026 RE//

-4°C / °C

[Mehr]
Wind variable 2kt
Sichtweite
Wetter -
Wolken
Druck 1025
Änderung -
Roh LGIO 070420Z AUTO VRB02KT //// // ////// M04/M10 Q1025 RE//

-3°C / °C

[Mehr]
Wind variable 1kt
Sichtweite
Wetter -
Wolken
Druck 1025
Änderung -
Roh LGIO 070350Z AUTO VRB01KT //// // ////// M03/M10 Q1025 RE//

-2°C / °C

[Mehr]
Wind variable 2kt
Sichtweite
Wetter -
Wolken
Druck 1025
Änderung -
Roh LGIO 070320Z AUTO VRB02KT //// // ////// M02/M12 Q1025 RE//

-2°C / °C

[Mehr]
Wind variable 3kt
Sichtweite
Wetter -
Wolken
Druck 1025
Änderung -
Roh LGIO 070250Z AUTO VRB03KT //// // ////// M02/M12 Q1025 RE//

-2°C / °C

[Mehr]
Wind variable 3kt
Sichtweite
Wetter -
Wolken
Druck 1025
Änderung -
Roh LGIO 070220Z AUTO VRB03KT //// // ////// M02/M12 Q1025 RE//

TAF für Ioannina (LGIO)

From till


From till Wind 50º 10kt. Visibility 10km or more. Few Clouds 2500ft.

Roh: TAF LGIO 071100Z 0712/0721 05010KT 9999 FEW025

Radar- und Niederschlags-Nowcast für Ioannina

Nieselregen
Leicht
Moderat
Stark
Sehr schwer
Hagel

Die Ortsmarkierung zeigt auf Ioannina. Nieselregen und leichter Schneefall können für das Radar unsichtbar sein. Die Niederschlagsintensität ist farbcodiert von Hellblau bis Orange.

Aktuelle Satelliten- und Regenbilder für Ioannina, Griechenland

Die Standortmarkierung ist platziert auf Ioannina. [Mehr]

Das Echtzeit-Satellitenbild kombiniert sichtbares Licht während des Tages mit Infrarotstrahlung während der Nacht. Nachts ist das Bild nicht dunkel, da Infrarotstrahlung Temperaturunterschiede erkennen kann. Leider sind niedrige Wolken und Nebel nur schwer von den Bodentemperaturen zu unterscheiden und können daher nachts fast unsichtbar sein. Meteosat-Satellitenbilder für Europa werden alle 5 Minuten in Echtzeit aktualisiert. Die Bilder GOES-16 / GOES-17 (Nord- und Südamerika) und Himawari (Asien) werden alle 10 Minuten aktualisiert.

Niederschläge werden von Radar und Satelliten berechnet. Nachts sind die Niederschlagsberechnungen durch die Satelliten weniger genau als tagsüber. Orangene Kreuze markieren Stellen, an denen Blitze aufgenommen wurden (über Europa).

Copyright 2023 EUMETSAT / meteoblue. Blitzdaten zur Verfügung gestellt von nowcast.

Zum Anfang